TIME,DELAY(SENSOR),PRES,T(CTD),SAL,OXYGEN,RAWTEMP,T(OPTODE),TCPHASE,FLUOR,BETA(BETA700),BETA(BETA412),BETA(BETA440),CDOM,C(CSC),ED(ED412.40),ED(ED444.00),ED(ED489.70),ED(ED554.30),LU(LU411.80),LU(LU443.40),LU(LU489.60),LU(LU554.10),COMP,TILTX,TILTX(TILTY),CHECK
1379021566,5809,496.8699951171875000,6.8716001510620120,34.1278991699218750,83.8313064575195300,591.3449096679688000,6.8635029792785645,48.3359107971191400,51,103,83,78,76,15287,2147747510,2147425984,2148005531,2147874916,2147627712,2147075757,2148247625,2147204379,1077,4,12,51436
1379021681,5809,486.5700073242187500,7.0373997688293460,34.1132011413574200,91.5943984985351600,586.5827026367188000,7.0168461799621580,47.3900184631347660,53,103,85,81,76,15288,2147744521,2147423606,2148006957,2147874852,2147626779,2147078820,2148245540,2147203995,422,4,12,16601
1379021810,5807,474.9200134277344000,7.1855001449584960,34.1100997924804700,97.2111129760742200,581.9332885742188000,7.1663532257080080,46.7072410583496100,52,105,87,79,77,15287,2147745353,2147427510,2148009334,2147874898,2147628964,2147077650,2148247478,2147206116,220,4,12,2399
1379021925,5807,464.6400146484375000,7.4903998374938965,34.1045989990234400,105.4065017700195300,572.6367187500000000,7.4647197723388670,45.7002296447753900,51,104,88,79,75,15288,2147742875,2147427099,2148006710,2147872493,2147626560,2147081261,2148245595,2147202724,3108,4,13,53170
1379022054,5808,453.0700073242187500,7.7301998138427730,34.1003990173339840,114.8627014160156200,564.6359252929688000,7.7208838462829590,44.6229591369628900,50,108,84,79,75,15289,2147740818,2147425865,2148007561,2147870125,2147621878,2147083373,2148239204,2147203968,2389,4,13,42651
1379022169,5810,442.6700134277344000,7.9883999824523930,34.0923004150390600,129.7203063964843800,556.6901245117188000,7.9747409820556640,43.0912590026855500,52,103,88,78,75,15288,2147737572,2147429065,2148004288,2147869312,2147621750,2147078290,2148238226,2147202413,2056,4,13,9972
1379022296,5810,430.7399902343750000,8.1486997604370120,34.0951004028320300,134.7017059326172000,551.2999877929688000,8.1466426849365230,42.5549888610839840,50,104,87,79,74,15290,2147739008,2147425938,2148003437,2147873124,2147621394,2147086381,2148232073,2147207652,743,4,13,10967
1379022401,5807,420.4800109863281000,8.3083000183105470,34.0979995727539060,139.0751953125000000,546.4417114257812000,8.3013792037963870,42.0907096862793000,51,106,84,80,73,15287,2147740937,2147424841,2148006217,2147870409,2147621229,2147083026,2148228854,2147201545,526,4,12,58063
1379022516,5807,409.4299926757812500,8.6472997665405270,34.0962982177734400,146.6712951660156200,536.4464111328125000,8.6191272735595700,41.2784309387207000,50,103,86,80,73,15287,2147739977,2147425362,2148000841,2147870710,2147619392,2147086555,2148236096,2147201252,2642,4,13,3233
1379022643,5809,398.0599975585937500,8.8353004455566400,34.1069984436035160,154.6004028320312500,528.9204101562500000,8.8578529357910160,40.5059509277343750,50,104,85,79,72,15285,2147739291,2147424411,2148002413,2147873261,2147617654,2147092342,2148233581,2147204854,1249,3,13,44040
1379022772,5805,387.7300109863281000,9.0256996154785160,34.1086997985839840,159.7460937500000000,523.9666137695312000,9.0147495269775390,40.0178489685058600,50,104,86,79,73,15286,2147739245,2147427282,2148004416,2147871780,2147616649,2147091538,2148231616,2147207094,3272,2,13,26153
1379022923,5805,376.9100036621094000,9.3449001312255860,34.1072006225585940,170.6100006103515600,514.0231933593750000,9.3291196823120120,39.0342712402343750,50,103,87,81,71,15284,2147737536,2147428891,2148004416,2147871899,2147615981,2147093778,2148232996,2147203913,3170,4,13,17277
1379023076,5808,364.4100036621094000,9.7121000289917000,34.1152000427246100,182.6022033691406200,500.5280151367187500,9.7546329498291020,37.9600410461425800,50,104,86,80,72,15287,2147734902,2147425197,2148005915,2147872923,2147611968,2147094820,2148225252,2147206793,150,3,13,30936
1379023190,5806,353.2699890136719000,10.0286998748779300,34.1287994384765600,182.5550994873047000,491.6748046875000000,10.0330801010131840,37.8132896423339840,50,103,84,78,70,15286,2147733924,2147427392,2147998866,2147872694,2147608960,2147099337,2148226377,2147206866,2136,3,14,6923
1379023307,5808,341.4200134277344000,10.4427995681762700,34.1365013122558600,189.2845001220703000,478.9693908691406000,10.4317798614501950,37.1510086059570300,49,107,87,80,69,15284,2147734198,2147428132,2148008228,2147872374,2147609782,2147102043,2148226157,2147206701,1147,4,13,45484
1379023422,5810,329.9899902343750000,10.8536996841430660,34.1517982482910160,197.7991027832031200,465.0914916992187500,10.8660802841186520,36.3764610290527340,49,105,88,81,68,15287,2147731721,2147425856,2148012315,2147872292,2147607350,2147104832,2148222427,2147205796,573,4,13,34005
1379023537,5809,319.1700134277344000,11.1536998748779300,34.1587982177734400,197.2091064453125000,456.0646972656250000,11.1479396820068360,36.2650794982910160,49,103,87,79,69,15285,2147731017,2147427547,2148012361,2147871689,2147606619,2147107392,2148223597,2147211044,2786,4,13,51354
1379023654,5807,308.3900146484375000,11.4028997421264650,34.1629981994628900,198.5556945800781200,448.2007141113281000,11.3931102752685550,36.0526390075683600,48,104,87,77,70,15283,2147729325,2147430683,2148019346,2147875437,2147604361,2147107721,2148227702,2147209344,2439,3,13,47983
1379023781,5807,297.5100097656250000,11.9159002304077150,34.1949005126953100,205.8412933349609400,431.7450866699219000,11.9050102233886720,35.3452682495117200,48,108,86,79,68,15281,2147729600,2147433371,2148027163,2147870098,2147599250,2147110637,2148223524,2147207524,1403,3,14,19465
1379023922,5808,285.9899902343750000,12.4984998703002930,34.2168998718261700,206.5626983642578000,411.9612121582031000,12.5185899734497070,34.9883995056152340,49,105,85,81,69,15282,2147726546,2147433380,2148031067,2147868342,2147597248,2147121801,2148230957,2147207945,916,3,13,24286
1379024073,5811,275.1400146484375000,13.1642999649047850,34.2666015625000000,211.3717041015625000,391.6765136718750000,13.1457996368408200,34.3929786682128900,49,106,87,79,67,15281,2147725549,2147432731,2148020699,2147875337,2147594285,2147117558,2148216182,2147210249,3224,3,14,30990
1379024256,5808,261.4899902343750000,13.5678997039794920,34.2966003417968750,211.3659973144531200,376.4077148437500000,13.6167697906494140,34.1584281921386700,48,105,88,81,67,15282,2147723099,2147445348,2148067072,2147872018,2147592768,2147132717,2148236617,2147211721,3297,3,14,5497
1379024387,5810,249.6999969482422000,14.2560997009277340,34.3581008911132800,212.1824035644531200,355.5365905761719000,14.2591400146484380,33.7959289550781250,48,104,84,80,67,15278,2147723702,2147455488,2148101010,2147873316,2147591113,2147143990,2148249014,2147210578,2833,3,13,55681
1379024502,5809,239.0700073242187500,14.6051998138427730,34.3977012634277340,212.9815979003906200,344.4729003906250000,14.5990695953369140,33.5854187011718750,50,103,84,81,65,15277,2147722029,2147465764,2148133997,2147873481,2147586112,2147154880,2148267849,2147217764,1726,2,14,3261
1379024631,5808,228.3099975585937500,15.2405004501342770,34.4659996032714840,212.9929046630859400,323.5885009765625000,15.2397804260253900,33.2751083374023440,48,103,85,80,66,15278,2147720256,2147486034,2148186294,2147873709,2147584685,2147171227,2148287945,2147218870,3375,3,14,55551
1379024770,5809,217.7799987792968800,15.8495998382568360,34.5355987548828100,212.2285003662109400,304.1072998046875000,15.8364801406860350,33.0331192016601560,48,104,85,80,66,15275,2147724790,2147523254,2148288704,2147873124,2147584210,2147200420,2148333056,2147224603,3392,3,14,30939
1379024935,5808,205.6900024414062500,16.9582004547119140,34.6733016967773440,213.2498016357422000,265.3442077636719000,17.0217990875244140,32.4209709167480500,50,107,85,80,65,15269,2147729691,2147576731,2148413129,2147873124,2147581778,2147225005,2148386614,2147229997,2511,3,13,47959
1379025036,5810,196.8300018310547000,17.4860992431640620,34.7354011535644500,213.4584960937500000,248.7758941650390600,17.5279293060302730,32.1757392883300800,50,107,88,79,65,15264,2147740041,2147646208,2148572653,2147874102,2147585508,2147274304,2148462784,2147232822,1666,2,14,45260
1379025091,5805,191.7100067138672000,17.8260993957519530,34.7803001403808600,213.0977935791015600,238.7402038574218800,17.8344306945800780,32.0550193786621100,53,110,85,80,64,15264,2147746249,2147675611,2148633554,2147872621,2147587904,2147296576,2148491035,2147234633,1326,3,14,23049
1379025146,5810,186.7100067138672000,18.0305004119873050,34.8053016662597660,213.2657928466797000,230.8415069580078000,18.0756397247314450,31.9358005523681640,54,106,87,80,64,15262,2147759250,2147722733,2148732205,2147874011,2147590573,2147323456,2148537572,2147235008,1221,2,14,62109
1379025226,5808,179.7899932861328000,18.6399002075195300,34.8806991577148440,214.0108032226562500,212.2651977539062500,18.6429405212402340,31.6391105651855470,61,108,88,82,63,15256,2147784722,2147825654,2148962011,2147876315,2147597513,2147385435,2148639524,2147242304,362,2,14,33948
1379025281,5807,175.5299987792968800,18.8022003173828120,34.9045982360839840,214.9781951904297000,206.7136993408203000,18.8125000000000000,31.5107498168945300,62,111,88,81,63,15253,2147805220,2147912493,2149137947,2147876598,2147605686,2147430738,2148714404,2147251053,3553,2,15,21496
1379025336,5809,171.2799987792968800,19.0576000213623050,34.9430999755859400,214.2489929199218800,196.0709991455078000,19.1376209259033200,31.4045906066894530,64,114,90,81,63,15249,2147837449,2148014646,2149355126,2147873444,2147618752,2147487442,2148812132,2147257234,3495,2,14,37506
1379025391,5806,167.4199981689453000,19.4136009216308600,34.9830017089843750,214.7191009521484400,187.5599060058593800,19.3976802825927730,31.2637100219726560,68,111,86,80,62,15247,2147871259,2148113910,2149544256,2147875291,2147625846,2147540772,2148885339,2147263707,2568,2,15,29461
1379025446,5810,163.8300018310547000,19.4563999176025400,34.9906005859375000,214.9109954833984400,184.3031005859375000,19.4972190856933600,31.2095794677734380,68,111,83,81,62,15242,2147904548,2148206336,2149701430,2147880310,2147638564,2147593600,2148955474,2147266221,2024,2,15,49754
1379025530,5808,158.7700042724609400,19.7791004180908200,35.0322990417480500,214.9073944091797000,175.2933959960937500,19.7726402282714840,31.0881996154785160,73,117,88,81,63,15240,2147989686,2148427282,2150121938,2147881865,2147672923,2147710893,2149136457,2147284708,1573,2,15,18515
1379025597,5806,155.3200073242187500,19.9815006256103500,35.0569000244140600,215.4179992675781200,168.8383026123047000,19.9700393676757800,30.9742794036865230,74,120,90,81,62,15237,2148061686,2148612973,2150463698,2147886518,2147701741,2147811538,2149286409,2147291117,1306,2,15,36654
1379025676,5806,151.1799926757812500,20.1788997650146500,35.0769004821777340,215.4754028320312500,161.2973937988281200,20.2007198333740230,30.8701705932617200,80,116,88,82,61,15231,2148168393,2148853275,2150896795,2147892443,2147743460,2147940781,2149479433,2147310262,929,2,15,17845
1379025743,5808,147.6399993896484400,20.4146003723144530,35.1083984375000000,216.4571990966797000,155.0039978027343800,20.3933200836181640,30.7346305847167970,77,122,87,81,61,15225,2148276004,2149106212,2151345280,2147891648,2147785718,2148071478,2149661952,2147323273,1124,2,15,26786
1379025824,5809,143.6600036621093800,20.6341991424560550,35.1258010864257800,215.7702941894531200,147.2463989257812500,20.6308307647705080,30.6674404144287100,87,116,88,81,62,15223,2148387602,2149315593,2151678144,2147900022,2147828169,2148176027,2149799936,2147334354,655,2,15,3033
1379025915,5808,139.6799926757812500,20.8071002960205080,35.1453018188476560,215.9895019531250000,141.9927062988281200,20.7917594909667970,30.5865192413330080,89,119,88,81,62,15217,2148337572,2149042459,2151028544,2147897664,2147802112,2148024685,2149488667,2147311853,3289,2,15,35069
1379026018,5805,135.9199981689453000,21.0034999847412100,35.1669998168945300,216.6392059326172000,135.4449005126953000,20.9924106597900400,30.4659309387207030,94,118,88,81,62,15213,2148776109,2150023561,2152807442,2147912320,2147979849,2148531666,2150262592,2147371081,612,2,15,24416
1379026145,5807,131.8800048828125000,21.3631000518798830,35.1985015869140600,217.9954071044922000,124.4418029785156200,21.3298206329345700,30.2510395050048830,98,123,89,83,62,15204,2149269010,2150920603,2154234093,2147930907,2148166820,2148938112,2150815936,2147417718,1144,2,15,45423
1379026248,5810,127.5100021362304700,21.5079994201660160,35.2150993347168000,219.6416931152343800,118.3517990112304700,21.5167102813720700,30.0868701934814450,103,121,91,82,60,15194,2149831360,2151841965,2155636205,2147957988,2148369828,2149346395,2151344768,2147468306,1541,2,16,19459
1379026327,5806,123.3700027465820300,21.6914005279541000,35.2257003784179700,220.0513000488281200,112.7366027832031200,21.6891307830810550,29.9930000305175780,113,123,89,82,62,15187,2150453769,2152823616,2157068672,2147987273,2148604562,2149789787,2151911040,2147514806,1456,1,15,6026
1379026406,5806,119.3000030517578100,21.9727993011474600,35.2375984191894500,218.9667053222656200,104.1864013671875000,21.9518394470214840,29.9368705749511720,125,123,88,82,61,15168,2150420553,2152439076,2156079360,2147981586,2148588608,2149586258,2151505289,2147485888,724,1,15,58367
1379026499,5809,115.6500015258789000,22.0643997192382800,35.2454986572265600,218.6707000732422000,100.7033996582031200,22.0589294433593750,29.9067401885986330,130,126,92,83,62,15168,2152045321,2155129179,2160193910,2148058057,2149157120,2150729563,2153048009,2147625051,102,2,15,48726
1379026602,5806,112.0599975585937500,22.0946006774902340,35.2478981018066400,218.8287963867187500,99.6656188964843800,22.0908393859863280,29.8852195739746100,130,125,88,82,60,15165,2151949101,2154521398,2158691062,2148046016,2149089444,2150350290,2152358784,2147578614,2944,1,15,42859
1379026729,5811,108.0800018310546900,22.2411003112792970,35.2587013244628900,219.2846984863281200,95.3874969482421900,22.2224407196044920,29.8067798614501950,136,127,87,83,60,15155,2153275136,2156211163,2160581878,2148095808,2149552502,2150985691,2153020626,2147645568,2290,2,16,60395
1379026849,5816,103.6900024414062500,22.5795001983642580,35.2905006408691400,222.7691955566406200,85.0668029785156200,22.5401897430419920,29.4986400604248050,146,123,89,83,61,15144,2153872118,2156466486,2160063981,2148102381,2149749321,2150994358,2152786560,2147645842,2703,2,15,55881
1379026940,5812,99.6900024414062500,22.8801002502441400,35.3241996765136700,226.5444030761718800,74.4680633544921900,22.8669109344482420,29.1780300140380860,136,121,88,83,60,15145,2157126454,2160742829,2165060123,2148240969,2150916333,2152687040,2154625408,2147830025,2644,1,15,45604
1379026995,5809,97.6100006103515600,23.0443992614746100,35.3456001281738300,230.4450073242187500,69.1811904907226600,23.0300502777099600,28.9236793518066400,114,120,89,83,59,15145,2157131392,2160436160,2164180580,2148234523,2151017764,2152654363,2154381394,2147817179,1808,2,15,9213
1379027050,5809,95.7399978637695300,23.2425994873046880,35.3670005798339840,234.7897033691406200,63.0824508666992200,23.2183799743652340,28.6430702209472660,100,119,90,83,58,15156,2156796937,2159683693,2162871552,2148218624,2150988397,2152429613,2153982326,2147778203,2325,1,15,35515
1379027135,5805,92.7399978637695300,23.3470993041992200,35.3731002807617200,239.5762023925781200,59.3042297363281250,23.3351402282714840,28.3766593933105470,87,122,90,83,60,15155,2161114642,2165183414,2169129974,2148423241,2152952566,2155188891,2156827748,2148057728,2726,2,15,25638
1379027190,5807,90.0800018310546900,23.5569000244140620,35.3777008056640600,241.8096008300781200,52.8604888916015600,23.5344104766845700,28.1959209442138670,83,124,89,84,58,15155,2163317613,2167738678,2171612736,2148535926,2154125138,2156635163,2158091538,2148185801,3348,1,16,42464
1379027245,5809,87.6500015258789000,23.6504001617431640,35.3827018737793000,243.8988037109375000,50.1140403747558600,23.6194000244140620,28.0691108703613280,78,126,91,84,58,15151,2166146578,2170970258,2174935451,2148686601,2155672137,2158604662,2159853284,2148367872,526,2,15,707
1379027300,5807,85.3799972534179700,23.8640003204345700,35.3851013183593750,244.7247924804687500,44.1313514709472660,23.8046607971191400,27.9584503173828120,76,126,90,83,58,15149,2171404425,2177553088,2182313353,2149005257,2158358811,2162158025,2163271387,2148705243,940,2,15,45720
1379027355,5807,83.5000000000000000,23.9578990936279300,35.3899993896484400,245.6358032226562500,39.6336212158203100,23.9440402984619140,27.8630695343017580,77,127,92,84,56,15143,2177347986,2184911222,2190333421,2149379602,2161617124,2166451218,2167304228,2149117897,1630,1,16,48923
1379027412,5808,81.8600006103515600,24.0618991851806640,35.3918991088867200,246.3824005126953000,37.1738395690918000,24.0203094482421880,27.8000297546386720,73,129,92,83,56,15145,2177674715,2184678939,2189474816,2149416877,2162200256,2166861074,2167292818,2149115821,1851,2,16,14434
1379027479,5808,80.3399963378906200,24.1369991302490230,35.3925018310546900,247.3607940673828000,33.8674888610839840,24.1228809356689450,27.7169990539550780,73,125,92,85,58,15141,2172482578,2177417664,2180581549,2149120795,2159977554,2163418432,2163437184,2148736694,2195,2,16,27251
1379027594,5808,78.6600036621093800,24.2679004669189450,35.3946990966796900,248.1549072265625000,30.4915103912353500,24.2276706695556640,27.6413002014160160,70,127,93,84,57,15135,2177600301,2183315620,2186769947,2149425920,2163060781,2167240265,2166753581,2149052470,2595,1,16,27716
1379027750,5810,75.9599990844726600,24.3138999938964840,35.3940010070800800,248.4669036865234400,28.0079402923584000,24.3047904968261720,27.5974998474121100,71,128,92,86,58,15125,2188593024,2195077851,2198384036,2150163821,2170042048,2175527762,2173613741,2149752777,3308,2,16,5685
1379027805,5810,73.5800018310546900,24.4676990509033200,35.3757019042968750,247.1819000244140600,21.6510391235351560,24.5023403167724600,27.5746097564697270,70,127,91,84,59,15134,2195396772,2202218578,2205346304,2150690194,2174491008,2180623616,2177684836,2150190866,267,2,16,4140
1379027860,5806,71.3899993896484400,24.7803993225097660,35.3927993774414060,247.1831970214843800,14.0462102890014650,24.7389602661132800,27.4814491271972660,68,127,95,85,58,15126,2194630756,2200426614,2202745206,2150738660,2174578358,2180092379,2176650688,2150120329,365,1,16,62541
1379027915,5809,69.7799987792968800,24.9622001647949220,35.3930015563964840,247.6815948486328000,8.1099462509155270,24.9238796234130860,27.3874206542968750,68,125,91,84,58,15122,2195178066,2200338980,2202098660,2150835309,2175401069,2180566345,2176606281,2150144411,299,1,15,14326
1379027982,5807,68.2900009155273400,25.0300006866455080,35.3946990966796900,248.6835021972656200,5.2844171524047850,25.0119705200195300,27.3101997375488280,67,129,91,84,56,15116,2201861796,2207611702,2209492169,2151457691,2179571227,2185352704,2180545353,2150565339,3194,1,16,38510
1379028079,5807,65.9899978637695300,25.1364994049072270,35.3935012817382800,249.4089965820312500,0.8431345224380493,25.1505203247070300,27.2253093719482420,65,129,94,86,58,15115,2206315885,2211634066,2212684918,2152048996,2183717174,2189389266,2183262637,2150902646,2380,1,16,3768
1379028134,5809,64.1100006103515600,25.3521995544433600,35.3917999267578100,250.0003051757812500,-3.1641390323638916,25.2756404876709000,27.1513404846191400,66,132,92,88,56,15112,2220758345,2227870043,2229571556,2153611977,2193784192,2201002230,2192723245,2151999488,1762,1,16,22392
1379028213,5806,62.5600013732910160,25.5301990509033200,35.4081001281738300,249.4328002929687500,-11.3659400939941400,25.5320205688476560,27.0758209228515620,65,129,91,86,58,15101,2225695634,2232479149,2233853677,2154133741,2197498614,2204809408,2195399049,2152335826,1088,1,16,44574
1379028381,5807,60.0400009155273440,26.1156005859375000,35.3853988647460940,248.4550933837890600,-27.6209392547607420,26.0413703918457030,26.9204406738281250,62,133,92,85,59,15100,2200327213,2201908937,2200364562,2151760438,2183762185,2187088493,2179402166,2150541321,2937,1,16,41400
1379028448,5806,58.2999992370605500,26.2968997955322270,35.3914985656738300,247.6557006835937500,-33.6639099121093750,26.2311706542968750,26.8813209533691400,62,132,92,86,57,15097,2200168521,2201064841,2199011602,2151757586,2184526994,2187401472,2179275081,2150537773,3140,1,16,36736
1379028599,5809,56.7400016784668000,26.3008003234863280,35.3941993713378900,247.1378936767578000,-35.9610214233398440,26.3033790588378900,26.8754997253417970,63,129,93,86,56,15095,2237501723,2242683346,2242742080,2156353115,2208769499,2215555236,2202823552,2153356662,3096,1,16,33651
1379028732,5806,53.7999992370605500,26.4018001556396500,35.3953018188476560,246.5906982421875000,-38.8947296142578100,26.3956604003906250,26.8632507324218750,63,129,96,86,56,15099,2255390500,2260103579,2259509120,2159454217,2223694418,2230549028,2213865947,2155002194,3566,1,16,34712
1379028787,5810,51.8800010681152340,26.6795005798339840,35.3921012878418000,244.8356018066406200,-47.5888595581054700,26.6694793701171880,26.8330993652343750,62,131,93,85,56,15092,2272870610,2277502528,2276066377,2161908891,2239573504,2247461723,2227055579,2156677668,900,1,16,27703
1379028842,5807,50.4300003051757800,26.8836994171142580,35.3921012878418000,242.9387969970703000,-53.4703407287597660,26.8550090789794920,26.8436203002929700,62,127,90,87,59,15089,2279533961,2283763190,2282007314,2163509897,2243986139,2251170459,2229195776,2157076662,3518,1,16,54120
1379028897,5806,49.5099983215332000,27.0359992980957030,35.3861007690429700,240.8721923828125000,-58.6380195617675800,27.0182399749755860,26.8708000183105470,61,128,92,87,58,15096,2290558518,2294675876,2292237257,2165014500,2252416548,2259920292,2236001078,2157939200,3461,0,16,39699
1379029017,5805,46.9099998474121100,27.2397994995117200,35.3768005371093750,237.8883056640625000,-64.9472198486328100,27.2178001403808600,26.9250297546386720,60,127,92,85,56,15097,2248501440,2248025353,2243755776,2160600987,2223080054,2224756827,2206060461,2154577069,2992,1,16,63599
1379029072,5806,45.2700004577636700,27.2651996612548830,35.3788986206054700,236.8464050292968800,-66.3174972534179700,27.2611808776855470,26.9545001983642580,61,127,92,87,54,15096,2301017956,2303500608,2299234724,2169219620,2262890029,2267192347,2239085476,2159114925,2571,1,16,19286
1379029127,5808,43.7999992370605500,27.3740997314453120,35.3634986877441400,235.5343017578125000,-69.0052413940429700,27.3463096618652340,26.9802608489990230,60,125,92,84,56,15080,2320221248,2323405467,2319237522,2174020635,2280695908,2286028233,2253918747,2161377069,2613,1,17,1772
1379029194,5808,42.3400001525878900,27.5807991027832030,35.3479003906250000,233.2055969238281200,-75.0555877685546900,27.5381507873535160,27.0110492706298830,59,125,93,85,58,15105,2300594605,2301174208,2295853531,2171033216,2267611547,2270421586,2240879533,2159743378,2743,1,16,29408
1379029337,5810,40.2299995422363300,27.7632007598876950,35.2947998046875000,229.1669006347656200,-82.1166610717773400,27.7623901367187500,27.1085700988769530,58,127,93,85,62,15087,2365925257,2370188982,2367631094,2187180662,2321073179,2325968292,2283410998,2166409554,3204,1,16,20195
1379029452,5807,38.7099990844726560,27.7952003479003900,35.2835998535156250,226.0420989990234400,-85.0947265625000000,27.8570899963378900,27.2166690826416000,57,119,89,86,54,15120,2372851666,2376798555,2374064228,2190098304,2330869174,2333753920,2287795501,2167598555,640,1,16,52360
1379029644,5808,35.9099998474121100,27.7954006195068360,35.2748985290527340,224.2194976806640600,-83.4413986206054700,27.8045101165771500,27.3222599029541000,55,118,91,84,52,15126,2384475355,2388578459,2384538267,2197135332,2364637430,2361956297,2304537298,2171074806,1615,1,16,7039